Regional Weather Roundup
Issued by NWS

Home | Current Version | Previous Version | Graphics & Text | Print | Product List | Glossary On
Versions: 1 2 3 4 5 6 7 8 9 10 11 12 13 14 15 16 17 18 19 20 21 22 23 24 25 26 27 28 29 30 31 32 33 34 35 36 37 38 39 40 41 42 43 44 45 46 47 48 49 50
000
ASUS43 KMPX 282301
RWRMN
WEATHER ROUNDUP FOR MINNESOTA
NATIONAL WEATHER SERVICE TWIN CITIES/CHANHASSEN MN
600 PM CDT WED JUN 28 2017


NOTE: "FAIR" INDICATES FEW OR NO CLOUDS BELOW 12,000 FEET WITH NO
SIGNIFICANT WEATHER AND/OR OBSTRUCTIONS TO VISIBILITY. N/A MEANS
CURRENT SKY AND/OR WEATHER CONDITIONS ARE NOT AVAILABLE.

MNZ060>063-068>070-290000-
   Twin Cities Metro

CITY           SKY/WX    TMP DP  RH WIND       PRES   REMARKS
TWIN CITIES    PTSUNNY   79  66  64 NW17      29.52R
ST PAUL        CLOUDY    79  68  69 NW15      29.51F
CRYSTAL        PTSUNNY   78  61  55 W14G22    29.51R
BLAINE         PTSUNNY   77  66  69 W10       29.52S
LAKEVILLE      MOSUNNY   81  64  57 W18G25    29.52S
EDEN PRAIRIE   PTSUNNY   81  66  60 W12       29.52R
SOUTH ST PAUL  PTSUNNY   79  69  70 NW8       29.51S
LAKE ELMO      PTSUNNY   73  68  83 W14       29.53R
$$
MNZ001>005-007-008-013>017-022>024-027-028-290000-
   Northwest Minnesota

CITY           SKY/WX    TMP DP  RH WIND       PRES   REMARKS
BEMIDJI        HVY RAIN  59  59  99 N5        29.55S
HALLOCK        CLOUDY    66  63  88 CALM      29.62S
ROSEAU         LGT RAIN  61  55  82 NE5       29.63R
WARROAD        RAIN      61  55  82 NE6       29.63R
CROOKSTON      CLOUDY    63  63 100 N9        29.61R
FOSSTON        RAIN      59  57  94 N9        29.57F
DETROIT LAKES  CLOUDY    64  61  88 NW15G21   29.57R
MOORHEAD       PTSUNNY   70  61  73 NW20      29.59R
PARK RAPIDS    RAIN      65  61  87 N6        29.52R FOG
MAHNOMEN       CLOUDY    62  60  94 N18       29.56S
$$
MNZ006-009>011-018-025>026-290000-
   North Central Minnesota

CITY           SKY/WX    TMP DP  RH WIND       PRES   REMARKS
BAUDETTE       LGT RAIN  62  61  96 N6        29.59S
FLAG ISLAND    HVY RAIN  61  57  88 NE9       29.62R
INTL FALLS     LGT RAIN  62  60  93 E9        29.58S
WASKISH        DRIZZLE   63  61  94 NE6       29.57R
BIG FORK       CLOUDY    63  57  82 E5        29.54F
LONGVILLE      CLOUDY    63  61  94 CALM      29.51S
GRAND RAPIDS   CLOUDY    60  59  96 VRB5      29.54S
CRANE LAKE     RAIN      57  55  94 CALM      29.60F
ORR            RAIN      57  55  94 CALM      29.55S
COOK           RAIN      59  57  94 E3        29.56F
WALKER         CLOUDY    61  59  91 N3        29.53R
$$
MNZ012-019>021-037-290000-
   Northeast Minnesota

CITY           SKY/WX    TMP DP  RH WIND       PRES   REMARKS
DULUTH         LGT RAIN  57  57 100 E14       29.53F VSB 3/4
ELY            LGT RAIN  57  55  94 E8        29.59F
HIBBING        CLOUDY    58  58 100 E7        29.54S
EVELETH        LGT RAIN  60  57  90 E5        29.56F
DULUTH HARBOR  RAIN      52  50  93 NE20G28   29.53F
TWO HARBORS    LGT RAIN  61  55  82 NE8       29.54S
SILVER BAY     LGT RAIN  57  57 100 NE8       29.55F
GRAND MARAIS     N/A     50  49  96 NE8       29.62F
G MARAIS ARPRT RAIN      55  52  88 NE7       29.65F
$$
MNZ029>031-032-039>041-046>048-054>057-064-290000-
   West Central Minnesota

CITY           SKY/WX    TMP DP  RH WIND       PRES   REMARKS
FERGUS FALLS   PTSUNNY   68  61  77 NW21G28   29.56R
WHEATON        PTSUNNY   75  61  60 NW18G24   29.60S
MORRIS         SUNNY     77  63  61 NW24G30   29.57R
ALEXANDRIA     PTSUNNY   69  60  73 NW26G32   29.58R
ELBOW LAKE     CLOUDY    69  62  80 W17G24    29.59R
WADENA         CLOUDY    64  61  88 W10G16    29.53R
GLENWOOD       CLOUDY    73  63  68 W22G29    29.57R
APPLETON       MOSUNNY   81  59  47 NW17G28   29.56S
BENSON         PTSUNNY   79  63  57 N17G24    29.57F
ORTONVILLE     SUNNY     79  61  53 NW16G24   29.58S
MADISON        MOSUNNY   84  63  48 NW15G22   29.57S
WILLMAR        FAIR      79  64  61 NW15G22   29.56F
$$
MNZ033>034-036-042>043-049>051-058-059-290000-
   Central Minnesota

CITY           SKY/WX    TMP DP  RH WIND       PRES   REMARKS
ST CLOUD       CLOUDY    75  65  70 W17G25    29.51S
SAUK CENTRE    CLOUDY    73  63  72 W18G25    29.55R
PAYNESVILLE    MOSUNNY   76  62  62 W17G25    29.55F
AITKIN         CLOUDY    66  64  94 CALM      29.47S
PINE RIVER     CLOUDY    63  63 100 MISG      29.55S
BRAINERD       CLOUDY    66  64  93 N9        29.50R
STAPLES        CLOUDY    64  61  88 W10       29.52S
LONG PRAIRIE   CLOUDY    68  61  77 SW14G24   29.54S
LITTLE FALLS   CLOUDY    70  59  68 W14G20    29.52R
BUFFALO        MOSUNNY   76  62  62 W12G21    29.54R
MAPLE LAKE     PTSUNNY   76  65  70 W12G21    29.54S
HUTCHINSON     CLOUDY    79  66  64 W18G25    29.56S
$$
MNZ037-044-045-052-053-290000-
   East Central Minnesota

CITY           SKY/WX    TMP DP  RH WIND       PRES   REMARKS
PRINCETON      CLOUDY    75  66  73 W9G22     29.51R
MORA           PTSUNNY   70  63  78 W7G16     29.51R
CAMBRIDGE      PTSUNNY   75  64  69 SW9       29.49S
RUSH CITY      CLOUDY    70  64  83 SW6       29.51R
MOOSE LAKE     CLOUDY    54  52  94 CALM      29.49S FOG
HINCKLEY       CLOUDY    70  66  88 SW10G16   29.49S
CLOQUET        RAIN      57  55  94 E10       29.51F
MCGREGOR       CLOUDY    61  59  94 E5        29.50S
$$
MNZ071>073-080-081-089-090-097-098-290000-
   Southwest Minnesota

CITY           SKY/WX    TMP DP  RH WIND       PRES   REMARKS
MONTEVIDEO     MOSUNNY   82  63  51 N16       29.57R
GRANITE FALLS  MOSUNNY   82  63  52 NW17G23   29.58S
CANBY          MOSUNNY   83  59  44 W16       29.60R
MARSHALL       MOSUNNY   83  64  52 NW17      29.57S
REDWOOD FALLS  MOSUNNY   82  62  50 NW15G23   29.55S
OLIVIA         SUNNY     79  63  57 NW15G21   29.55F
PIPESTONE      SUNNY     82  61  47 NW15      29.62S
WINDOM         SUNNY     84  63  48 W14       29.58F
WORTHINGTON    MOSUNNY   82  65  56 W16       29.62F
JACKSON        MOSUNNY   81  64  57 W12G17    29.60F
TRACY          MOSUNNY   83  68  60 NW14G20   29.59S
SLAYTON        SUNNY     82  63  52 W15G21    29.62R HAZE
$$
MNZ065>067-074>077-082>085-091>093-290000-
   South Central Minnesota

CITY           SKY/WX    TMP DP  RH WIND       PRES   REMARKS
MANKATO        MOSUNNY   82  67  60 W14       29.54F
NEW ULM        PTSUNNY   81  64  57 NW12      29.55S
ST JAMES       PTSUNNY   82  66  57 W15       29.56F
FAIRMONT       SUNNY     83  66  56 W15G26    29.57F
GLENCOE        SUNNY     79  68  69 W18G24    29.54R
FARIBAULT      MOSUNNY   82  66  57 W14G23    29.54S
OWATONNA       SUNNY     84  66  54 W18G24    29.55R
WASECA         MOSUNNY   81  64  57 W14G21    29.56S
ALBERT LEA     MOSUNNY   82  66  57 SW13G20   29.56S
$$
MNZ078>079-086>088-094>096-290000-
   Southeast Minnesota

CITY           SKY/WX    TMP DP  RH WIND       PRES   REMARKS
ROCHESTER      CLOUDY    77  69  76 S18       29.58S
RED WING       CLOUDY    81  66  61 NW3       29.50S
STANTON        PTSUNNY   82  64  55 W16G26    29.52R
DODGE CENTER   SUNNY     81  66  61 SW18G26   29.56R
WINONA         CLOUDY    73  66  78 SW6G16    29.57R
AUSTIN         CLOUDY    81  68  65 SW14      29.57R
PRESTON        CLOUDY    70  65  82 SW8       29.61S
$$
ABBREVIATIONS USED IN REMARKS
   TC - TEMPERATURES IN CELSIUS
  WCI - WIND CHILL INDEX
   HX - HEAT INDEX
  VSB - VISIBILITY
$$




USA.gov is the U.S. government's official web portal to all federal, state and local government web resources and services.